STARLINK-31975 (59886 NORAD) Tracking and Keplerian Element Data

This shows tracking and keplerian element data for the satellite.

Feedback or suggestion? Click here.




ElementValue
Catalog59886
NameSTARLINK-31975
Epoch Orbit290
Epoch Day160.16667824
Epoch Year2024
RAAN174.4056
Inclination43.0038
Eccentricity0.0001539
Argument of Perigee265.1298
Mean Anonmoly310.5361
Mean Motion15.79996673
Decay Rate-0.00962369
L11 59886U 24100B 24160.16667824 -.00962369 00000+0 -56083-2 0 9996
L22 59886 43.0038 174.4056 0001539 265.1298 310.5361 15.79996673 2906



Live tracking and technical data element details for STARLINK-31975 (NORAD 59886). STARLINK-31975 can be tracked NOW for your location showing map with azimuth and elevation plus other details from your city location.







IsCatalogInMostPopularTable: catalog: 59886, numindb: 9
Update: records affected: 1



GetName: 59886 STARLINK-31975

Hit Count: updated at: Wed, 24 Jul 2024 23:51:32 GMT